This is the latest recevied weather packets stored in our database for station/object KG5VSR. If no packets are shown the sender has not sent any weather packets the latest 10 day(s).
| Time | Temp. | Humidity | Pressure | Rain* | Wind** | Luminosity | Snow |
|---|---|---|---|---|---|---|---|
| 1788104196 | 32.22° C | 64% | 1017.4 hPa | 0 mm | - | 586 W/m² | - |
| 1788102396 | 31.11° C | 67% | 1017.3 hPa | 0 mm | - | 491 W/m² | - |
| 1788100590 | 30° C | 70% | 1017.4 hPa | 0 mm | - | 281 W/m² | - |
| 1788098787 | 30° C | 71% | 1017.7 hPa | 0 mm | - | 250 W/m² | - |
| 1788096987 | 28.89° C | 73% | 1017.4 hPa | 0 mm | - | 152 W/m² | - |
| 1788095186 | 27.22° C | 75% | 1017.1 hPa | 0 mm | - | 62 W/m² | - |
| 1788093383 | 26.67° C | 76% | 1016.8 hPa | 0 mm | - | 28 W/m² | - |
| 1788091577 | 26.11° C | 77% | 1016.5 hPa | 0 mm | - | 3 W/m² | - |
| 1788089774 | 26.67° C | 75% | 1016.2 hPa | 0 mm | - | 0 W/m² | - |
| 1788087970 | 26.67° C | 73% | 1015.8 hPa | 0 mm | - | 0 W/m² | - |
| 1788086166 | 27.22° C | 70% | 1015.6 hPa | 0 mm | - | 0 W/m² | - |
| 1788084362 | 26.67° C | 69% | 1015.7 hPa | 0 mm | - | 0 W/m² | - |
| 1788082562 | 26.67° C | 68% | 1015.4 hPa | 0 mm | - | 0 W/m² | - |
| 1788080763 | 27.22° C | 65% | 1015.5 hPa | 0 mm | - | 0 W/m² | - |
| 1788078963 | 27.78° C | 63% | 1015.6 hPa | 0 mm | - | 0 W/m² | - |
| 1788077160 | 28.89° C | 60% | 1015.5 hPa | 0 mm | - | 0 W/m² | - |
| 1788075355 | 28.89° C | 59% | 1015.4 hPa | 0 mm | - | 0 W/m² | - |
| 1788073551 | 30° C | 57% | 1015.7 hPa | 0 mm | - | 0 W/m² | - |
| 1788071751 | 30° C | 56% | 1015.6 hPa | 0 mm | - | 0 W/m² | - |
| 1788069950 | 29.44° C | 55% | 1015.8 hPa | 0 mm | - | 0 W/m² | - |
| 1788068147 | 29.44° C | 57% | 1015.5 hPa | 0 mm | - | 0 W/m² | - |
| 1788066344 | 30.56° C | 53% | 1015.3 hPa | 0 mm | - | 0 W/m² | - |
| 1788064540 | 30.56° C | 52% | 1015.5 hPa | 0 mm | - | 0 W/m² | - |
| 1788062738 | 32.22° C | 48% | 1015.3 hPa | 0 mm | - | 0 W/m² | - |
| 1788060934 | 32.78° C | 47% | 1015.3 hPa | 0 mm | - | 0 W/m² | - |
* Rain latest hour (hover to see other rain measurements)
** Current wind speed in m/s (hover to see current wind gust speed)